Location: Burla
(50.9568°N, 10.4983°E)
Time: 16:54:31
(UTC+00:00)

SOZ - Pass Details

Date: 18 January 2026
Orbit: 328 x 16064 km, 51.9° (Epoch: 16 February)

Event Time Altitude Azimuth Distance (km) Brightness Sun altitude
Exits shadow 04:59:31 64° 49° (NE) 429 4.3 -20.3°
Drops below altitude 10° 05:02:49 10° 89° (E) 1,969 8.8 -19.8°
Sets 05:06:19 0° 92° (E) 3,759 10.7 -19.2°
